AirNav   Everest Fuels
 
 1641 users online  

1U9 Pine Airport
Pine, Idaho, USA

GOING TO PINE?


FAA INFORMATION EFFECTIVE 10 SEPTEMBER 2020

Location

FAA Identifier: 1U9
Lat/Long: 43-27-58.5000N 115-18-36.1000W
43-27.975000N 115-18.601667W
43.4662500,-115.3100278
(estimated)
Elevation: 4232 ft. / 1290 m (estimated)
Variation: 17E (1985)
From city: 1 mile S of PINE, ID
Time zone: UTC -6 (UTC -7 during Standard Time)
Zip code: 83647

Airport Operations

Airport use: Open to the public
Activation date: 05/1950
Control tower: no
ARTCC: SALT LAKE CITY CENTER
FSS: BOISE FLIGHT SERVICE STATION
NOTAMs facility: BOI (NOTAM-D service available)
Attendance: UNATNDD
Wind indicator: yes
Segmented circle: yes

Airport Communications

CTAF: 122.9

Nearby radio navigation aids

VOR radial/distance  VOR name  Freq  Var
LIAr017/(35.4)LIBERATOR VOR114.9018E
BOIr081/38.7BOISE VORTAC113.3017E

Airport Services

Parking: tiedowns
Airframe service: NONE
Powerplant service: NONE
Bottled oxygen: NONE
Bulk oxygen: NONE

Runway Information

Runway 16/34

Dimensions: 2300 x 125 ft. / 701 x 38 m
Surface: turf, in fair condition
Runway edge markings: 16/34 EDGES & THRS MARKED WITH WHITE ROCKS.
RUNWAY 16  RUNWAY 34
Latitude: 43-28.163893N43-27.785953N
Longitude: 115-18.618483W115-18.585762W
Elevation: 4222.0 ft.4206.0 ft.
Traffic pattern: leftright
Runway heading: 159 magnetic, 176 true339 magnetic, 356 true
Obstructions: 17 ft. road, 115 ft. right of centerline
RY 16 +750 FT TIMBERED RIDGE AT 2000 FT ON CNTRLN; +50 FT TREE AT 300 FT, 80 FT LEFT; +50 FT TREES AT 350 FT, ON CNTRLN; +40 FT TREE AT 120 FT, 70 FT RIGHT.
40 ft. tree, 200 ft. from runway, 100 ft. left of centerline, 5:1 slope to clear

Airport Ownership and Management from official FAA records

Ownership: Publicly-owned
Owner: STATE OF ID, ITD DIV OF AERO
P.O. BOX 7129
BOISE, ID 83707-1129
Phone 208-334-8775
Manager: DIV ADMIN
P.O. BOX 7129
BOISE, ID 83707-1129
Phone 208-334-8775

Airport Operational Statistics

Aircraft operations: avg 20/week *
98% transient general aviation
2% military
* for 12-month period ending 30 June 2017

Additional Remarks

NO WINTER MAINTENANCE.
NO LINE OF SIGHT BETWEEN RWY ENDS.
RECOMMEND LAND RY 34 & TAKEOFF R\Y 16 WHEN WIND CONDITIONS PERMIT.
RY HAS SIDESLOPE, DOWNHILL FM WEST TO EAST.
FOR CD CTC BIG SKY APCH AT 208-364-5860/5861.

Instrument Procedures

There are no published instrument procedures at 1U9.

Some nearby airports with instrument procedures:

U76 - Mountain Home Municipal Airport (27 nm SW)
KMUO - Mountain Home Air Force Base (35 nm SW)
KBOI - Boise Air Terminal/Gowen Field (40 nm W)
KGNG - Gooding Municipal Airport (41 nm SE)
KSUN - Friedman Memorial Airport (44 nm E)
 
Loc | Ops | Rwys | IFR | FBO | Links
Com | Nav | Svcs | Stats | Notes
Area around 1U9 (Pine Airport)
 
Road maps at: MapQuest Bing Google
 
Aerial photo
WARNING: Photo may not be current or correct
Aerial photo of 1U9 (Pine Airport)
Photo by Raul Agosto
Photo taken 31-May-2014
looking northwest.

Do you have a better or more recent aerial photo of Pine Airport that you would like to share? If so, please send us your photo.

 
Sectional chart

 
Airport distance calculator
Flying to Pine Airport? Find the distance to fly.

From to 1U9

Sunrise and sunset
Times for 24-Sep-2020
 Local
(UTC-6)
 Zulu
(UTC)
Morning civil twilight07:0413:04
Sunrise07:3313:33
Sunset19:3301:33
Evening civil twilight20:0102:01

Current date and time
Zulu (UTC)  24-Sep-2020 19:10:55
Local (UTC-6)  24-Sep-2020 13:10:55
 
METAR
KMUO 
36nm SW 
241858Z AUTO 34018G24KT 10SM SCT090 25/03 A2999 RMK AO2 PK WND 35027/30 SLP133 T02510031 $
KBOI 
41nm W 
241853Z 33013KT 8SM FEW100 22/07 A3002 RMK AO2 SLP143 T02220072
KSUN 
45nm E 
241858Z 21007KT 10SM SCT120 22/02 A3004
KSNT 
45nm N 
241851Z AUTO VRB06G15KT 16/03 A3012 RMK AO1 SLP111 T01610028
TAF
KMUO 
36nm SW 
241800Z 2418/2524 32010G18KT 9999 SCT080 BKN200 QNH2992INS TEMPO 2420/2424 32015G25KT 510009 BECMG 2505/2506 VRB06KT 9999 SCT080 BKN180 QNH2996INS BECMG 2517/2518 32012KT 9999 SCT070 BKN200 QNH2988INS TX29/2422Z TN12/2513Z
KBOI 
41nm W 
241740Z 2418/2518 34007KT 6SM FU BKN080 FM241900 33012G21KT P6SM BKN080 FM250100 33006KT P6SM BKN120 FM250800 14007KT P6SM BKN120
NOTAMs
Click for the latest NOTAMs
NOTAMs are issued by the DoD/FAA and will open in a separate window not controlled by AirNav.

 

 
 

Would you like to see your business listed on this page?

 If your business provides an interesting product or service to pilots, flight crews, aircraft, or users of the Pine Airport, you should consider listing it here.  To start the listing process, click on the button below
 
Add a business
 

Other Pages about Pine Airport

Update a link
 
Copyright © AirNav, LLC. All rights reserved. Privacy Policy  Contact